Location: Chris' Backyard Observatory
(47.3045°N, 122.2839°W)
Time: 23:54:39
(UTC-08:00)

Daily predictions for brighter satellites

Satellite Brightness Start Highest point End
(mag) Time Altitude Azimuth Time Altitude Azimuth Time Altitude Azimuth
COSMOS 2428 3.4 17:13:20 10° S 17:18:27 35° ESE 17:23:34 10° NE
COSMO-SKYMED 1 4.0 17:16:47 10° NE 17:19:53 19° E 17:22:58 10° SE
CZ-4 R/B 1.2 17:16:34 10° SSE 17:20:26 78° ENE 17:24:21 10° N
Cosmos 2228 Rocket 3.6 17:17:09 10° N 17:21:16 37° ENE 17:25:22 10° SE
Cosmos 1300 4.3 17:19:29 10° NNE 17:21:54 16° ENE 17:24:19 10° ESE
Cosmos 2237 Rocket 3.9 17:22:32 10° SE 17:25:07 13° E 17:27:42 10° ENE
YAOGAN 1 2.6 17:20:52 10° SSE 17:25:08 63° ENE 17:29:27 10° N
Cosmos 1464 Rocket 4.3 17:19:17 10° NNW 17:25:28 74° W 17:31:33 10° S
Cosmos 2150 Rocket 4.2 17:23:27 10° NNW 17:28:43 82° WSW 17:33:53 10° SSE
MOS 1 4.3 17:23:11 10° SSE 17:28:49 79° ENE 17:34:31 10° NNW
Cosmos 1726 3.5 17:26:51 10° NNE 17:29:35 19° ENE 17:32:18 10° ESE
Thor Agena Rocket 3.8 17:24:39 10° NNE 17:29:47 50° E 17:34:49 10° S
Cosmos 1898 Rocket 4.1 17:25:20 10° NNW 17:30:39 67° WSW 17:35:56 10° S
BREEZE-M DEB (TANK) 4.0 17:18:38 10° WNW 17:31:04 67° SW 17:34:47 10° SE
SPOT 3 Rocket 3.5 17:26:46 10° SSE 17:31:54 78° ENE 17:37:06 10° NNW
Cosmos 1408 Rocket 3.6 17:30:57 10° S 17:35:23 70° E 17:39:49 10° NNE
USA 116 3.2 17:33:55 10° NNE 17:37:16 64° ESE 17:40:22 10° S
ATLAS 3B R/B 4.2 17:31:44 10° W 17:38:04 29° NNW 17:44:08 10° NNE
Cosmos 1125 Rocket 4.0 17:33:21 10° N 17:38:09 35° ENE 17:42:54 10° SE
Meteor 2-2 Rocket 4.3 17:33:20 10° N 17:38:52 54° ENE 17:44:22 10° SSE
Cosmos 1814 Rocket 4.1 17:34:32 10° S 17:39:49 67° ESE 17:45:10 10° NNE
USA 215 3.3 17:35:23 10° ESE 17:41:56 79° NNE 17:48:30 10° NW
Cosmos 990 Rocket 4.1 17:37:02 10° NNW 17:42:19 89° WSW 17:47:35 10° SSE
IDEFIX/ARIANE 42P 3.1 17:40:55 10° S 17:46:04 66° WSW 17:51:19 10° NNW
Cosmos 2322 3.8 17:40:33 10° SSW 17:46:14 82° WNW 17:51:59 10° NNE
CZ-4 R/B 4.4 17:42:53 10° SSE 17:47:02 82° ENE 17:51:12 10° NNW
Meteor 1-28 Rocket 4.4 17:45:01 10° NE 17:47:57 22° E 17:50:51 10° SE
Cosmos 332 Rocket 4.4 17:44:38 10° S 17:49:03 37° ESE 17:53:32 10° NE
NOSS 3-2 (A) 4.3 17:43:19 10° WSW 17:49:17 48° NW 17:55:56 10° NE
NOSS 3-2 (C) 4.2 17:46:31 10° WSW 17:52:35 54° NW 17:59:18 10° NE
SL-16 R/B 3.7 17:48:54 10° WSW 17:53:55 32° NW 17:58:58 10° NNE
Cosmos 2058 4.3 17:52:11 10° SE 17:55:04 19° E 17:56:34 16° ENE
Cosmos 1844 Rocket 2.7 17:49:57 10° NNW 17:55:40 90° NNW 18:01:20 10° SSE
SJ-6B 3.9 17:52:42 10° ESE 17:56:03 25° ENE 17:59:27 10° N
Cosmos 1743 Rocket 3.7 17:52:22 10° S 17:56:44 57° E 18:01:09 10° NNE
Tsikada Rocket 4.1 17:50:42 10° S 17:57:04 90° ESE 18:03:32 10° N
Cosmos 1328 Rocket 3.5 17:55:42 10° N 18:00:09 86° E 18:04:37 10° S
Cosmos 841 Rocket 3.6 17:55:03 10° S 18:00:12 57° ESE 18:05:23 10° NNE
Cosmos 2333 4.2 17:55:14 10° SSW 18:00:45 62° ESE 18:06:17 10° NNE
Meteor 1-21 Rocket 4.4 17:59:51 10° SSW 18:05:46 83° W 18:11:41 10° N
Cosmos 1515 Rocket 3.5 18:01:30 10° N 18:06:00 75° E 18:10:26 10° SSE
SKYMED 2 3.6 18:04:02 10° NNE 18:08:19 55° E 18:12:35 10° S
Cosmos 2360 Rocket 3.0 18:05:56 10° SW 18:11:22 49° WNW 18:16:52 10° NNE
Cosmos 1980 4.3 18:06:34 10° SSE 18:11:38 34° ESE 18:15:06 18° NE
ALOS 3.2 18:08:33 10° ESE 18:12:18 25° ENE 18:16:05 10° N
Cosmos 44 4.5 18:10:30 10° S 18:14:51 27° ESE 18:16:36 22° E
Cosmos 2151 3.3 18:11:45 10° SSE 18:15:41 40° E 18:19:07 13° NNE
CZ-4C R/B 4.2 18:14:12 10° NW 18:18:31 19° N 18:22:30 12° NE
Cosmos 1151 Rocket 2.9 18:15:12 10° N 18:19:29 71° E 18:23:45 10° SSE
Cosmos 371 Rocket 3.4 18:15:11 10° S 18:19:51 53° ESE 18:23:23 17° NE
Cosmos 2333 Rocket 2.4 18:16:30 10° S 18:21:53 48° ESE 18:25:43 19° NE
Cosmos 1634 Rocket 4.0 18:16:22 10° N 18:22:36 90° WNW 18:28:47 10° S
Cosmos 1500 Rocket 3.4 18:19:44 10° S 18:24:03 79° E 18:28:25 10° NNE
Cosmos 1340 Rocket 3.8 18:22:43 10° SSE 18:25:26 26° ESE 18:25:26 26° ESE
CENTAUR R/B 2.6 18:20:00 10° SW 18:26:11 85° NW 18:32:01 16° NE
Cosmos 836 Rocket 4.5 18:22:19 10° S 18:27:28 63° ESE 18:31:41 16° NNE
FENGYUN 3A 4.1 18:22:54 10° SE 18:27:45 36° ENE 18:32:38 10° N
Meteor 1-27 4.2 18:24:11 10° N 18:29:57 64° ENE 18:35:44 10° SSE
OTV 4 3.1 18:28:51 10° SW 18:30:21 13° S 18:31:42 11° SSE
Lacrosse 5 2.9 18:27:32 10° W 18:32:14 37° NNW 18:35:01 21° NE
SL-19 R/B 4.4 18:28:16 10° SE 18:34:00 53° ENE 18:39:29 10° N
ATLAS 5 CENTAUR R/B 4.0 18:30:57 10° NNW 18:34:10 15° N 18:35:59 14° NNE
BREEZE M DEB (TANK) 1.8 18:31:21 10° WNW 18:34:12 52° SSW 18:34:34 44° SSE
SL-14 R/B 3.1 18:33:14 10° S 18:37:07 67° E 18:39:36 22° NNE
Cosmos 44 Rocket 3.4 18:33:23 10° SSW 18:38:26 61° ESE 18:40:38 32° NE
Cosmos 2219 Rocket 2.1 18:33:18 10° SSW 18:38:56 81° ESE 18:43:09 19° NNE
Cosmos 2322 Rocket 4.5 18:35:40 10° W 18:39:23 17° NW 18:43:06 10° N
Cosmos 2278 Rocket 2.2 18:34:01 10° NNW 18:39:45 89° WSW 18:45:26 10° SSE
Meteor 2-10 3.8 18:35:08 10° N 18:40:13 74° ENE 18:45:22 10° SSE
METEOR-M 4.0 18:37:01 10° SSE 18:42:22 83° ENE 18:47:46 10° NNW
Timation 1 Rocket 4.4 18:37:02 10° NNW 18:42:59 58° ENE 18:47:29 18° SE
Resurs 01 Rocket 1.8 18:46:14 42° E 18:46:57 46° ENE 18:51:14 10° N
Cosmos 1763 Rocket 4.3 18:43:58 10° SW 18:49:03 50° WNW 18:54:05 10° NNE
Cosmos 372 Rocket 4.0 18:49:28 10° NNW 18:54:36 81° WSW 18:59:41 10° SSE
COSMO-SKYMED 1 3.5 18:52:07 10° N 18:56:18 48° WNW 19:00:29 10° SW
NOSS 0 Rocket 3.8 18:50:20 10° SSW 18:56:33 79° ESE 19:00:13 26° NNE
Cosmos 1300 3.9 18:54:13 10° NNW 18:57:54 44° W 19:01:32 10° SSW
Lacrosse 5 rocket 1.0 18:54:43 10° NW 18:58:31 89° NNE 18:58:43 80° ESE
Cosmos 1707 Rocket 3.8 18:56:57 10° N 19:00:21 49° NNE 19:00:21 49° NNE
Cosmos 2084 3.1 18:58:26 10° SW 19:02:05 75° S 19:02:05 75° S
COSMOS 2428 3.7 18:57:10 10° SW 19:02:37 43° NW 19:07:25 13° NNE
Lacrosse 4 Rocket 3.6 19:01:06 10° N 19:01:55 14° N 19:01:55 14° N
Cosmos 1726 3.8 19:01:35 10° NNW 19:05:03 34° W 19:08:29 10° SSW
Cosmos 2237 Rocket 2.1 19:02:37 10° SSW 19:08:15 84° ESE 19:10:28 39° NNE
Cosmos 783 Rocket 4.4 19:05:41 10° SSW 19:10:59 78° ESE 19:12:23 50° NE
Cosmos 2369 Rocket 4.0 19:07:26 10° N 19:09:30 17° NNE 19:09:30 17° NNE
Cosmos 540 Rocket 3.5 19:06:53 10° SSW 19:12:03 81° WNW 19:14:11 37° NNE
SL-16 R/B 2.9 19:07:00 10° S 19:10:53 36° SE 19:10:53 36° SE
Cosmos 2279 Rocket 4.4 19:09:49 10° NNW 19:15:56 62° W 19:22:03 10° S
Cosmos 2297 3.6 19:11:57 10° NNW 19:17:42 88° ENE 19:20:00 38° SSE
ATLAS 3B R/B 4.3 19:26:00 10° NW 19:31:13 21° N 19:32:34 20° NNE
Cosmos 2058 4.1 19:27:50 10° SW 19:31:43 40° WNW 19:32:53 32° NW
Spot 2 Rocket 3.7 19:28:28 10° S 19:33:29 68° WSW 19:38:32 10° NNW
Nadezhda 4 Rocket 3.9 19:33:52 10° S 19:40:07 89° WNW 19:43:42 28° N
ALOS 3.3 19:45:06 10° S 19:49:32 43° W 19:54:00 10° NNW
Cosmos 44 4.2 19:50:44 10° SW 19:55:04 50° W 19:55:04 50° W
Cosmos 2333 Rocket 3.6 20:01:17 10° WSW 20:06:21 33° NW 20:07:47 29° NNW
CZ-4C R/B 4.2 20:03:58 10° NNW 20:07:41 24° N 20:07:41 24° N
Lacrosse 5 4.0 20:12:01 10° NW 20:14:14 21° NW 20:14:14 21° NW
CENTAUR R/B 4.0 20:12:11 10° W 20:17:55 31° NNW 20:19:14 29° N
ATLAS 5 CENTAUR R/B 4.3 20:15:52 10° NNW 20:17:33 18° NNW 20:17:33 18° NNW
Cosmos 2219 Rocket 4.2 20:19:16 10° W 20:23:35 22° NW 20:24:55 20° NNW
Resurs 01 Rocket 4.0 20:23:48 21° W 20:23:48 21° W 20:27:01 10° NW
Cosmos 2237 Rocket 4.4 20:48:49 10° W 20:52:21 21° NW 20:52:21 21° NW
SL-16 R/B 4.5 20:51:15 10° WSW 20:52:51 18° WSW 20:52:51 18° WSW
